sat.trackr.live / text

‹ back to catalog

STARLINK-31198

NORAD 58867 · 2024-019Q

PAYLOAD ACTIVE UNKNOWN

§ Identity

Operator
Country
US
Launch date
2024-01-29
Launch site
AFETR
Launch vehicle
Mass (kg)
RCS (m²)

Purposes: comms

External: N2YO · Heavens-Above · Gunter

§ Orbital elements

Epoch: 2026-05-24T11:11:49.272864Z

Period
94.27 min
Inclination
43.0003°
Eccentricity
0.0000968
Mean motion
15.27579132 rev/d
Perigee alt
482.4 km
Apogee alt
483.7 km
Semi-major
6,861.2 km
B*
1.4754e-4
RAAN
180.7731°
Arg perigee
250.7069°
Mean anomaly
109.3678°
Rev number
13,065

§ Raw data

STARLINK-311981 58867U 24019Q   26144.46654251  .00003800  00000+0  14754-3 0  99942 58867  43.0003 180.7731 0000968 250.7069 109.3678 15.27579132130656

JSON: /api/v1/satellites/58867 · /tle

For live sub-satellite position, see the globe view (requires WebGL).

§ Visibility from observer

Set your observer location to see the next 7 days of passes ≥ 10°. The values pass through the URL so the page stays shareable.

No JS? Fill the form by hand. The geolocation button needs JavaScript.